Location: Domont
(49.0278°N, 2.3264°E)
Time: 10:30:54
(UTC+00:00)

DX 1 - Pass Details

Date: 28 June 2022
Orbit: 617 x 629 km, 98.4° (Epoch: 09 August)

Event Time Altitude Azimuth Distance (km) Brightness Sun altitude
Rises 21:40:12 0° 9° (N) 2,934 ? -11.8°
Reaches altitude 10° 21:42:27 10° 4° (N) 2,021 ? -12.0°
Maximum altitude 21:46:41 49° 291° (WNW) 820 ? -12.3°
Drops below altitude 10° 21:50:53 10° 217° (SW) 2,001 ? -12.7°
Sets 21:53:06 0° 211° (SSW) 2,902 ? -12.9°
